Wind_Speed
3 5 6 8 9 10 9 9 10 12 12 12 11 10 10 10 11 12 13 13 14 15 16 17 18 19 19 19 20 19 19 18 18 18 18 19 20 21 21 22 23 23 24 24 24 24 24 24 24 24 24 24 24 24 24 24 23 23 23 23 23 23 23 24 24 24 24 24 24 24 24 25 25 25 25 25 25 25 25 25 25 25 25 25 25 25
5 6 8 9 10 10 9 8 9 11 13 13 12 12 12 12 13 14 14 14 15 16 17 18 19 20 20 20 20 20 20 19 18 18 19 19 20 21 21 22 23 24 24 24 24 24 24 24 24 24 24 24 24 24 24 23 23 23 23 23 23 23 23 23 23 24 24 24 24 24 24 25 25 25 25 25 25 25 25 25 25 25 25 25 25 25
6 7 8 9 9 9 9 8 9 11 12 13 13 13 13 14 15 16 16 16 16 17 17 18 19 20 21 21 21 21 20 19 19 19 19 19 20 21 22 22 23 24 24 25 25 25 24 24 24 24 24 24 24 24 23 23 23 23 23 23 23 23 23 23 23 23 24 24 24 24 25 25 25 25 25 25 25 25 25 25 25 26 26 26 25 25
6 7 8 9 9 8 8 9 10 12 13 13 13 13 14 15 16 17 18 18 18 18 18 19 20 21 22 22 22 22 21 20 19 19 19 19 20 21 22 23 24 25 25 25 25 25 24 24 24 24 24 24 24 23 23 23 23 23 23 23 23 23 23 23 23 23 24 24 24 25 25 25 25 25 25 25 25 26 26 26 26 26 26 26 25 25
6 8 9 9 10 9 8 9 11 13 14 14 14 14 14 15 17 18 19 19 19 19 19 19 20 21 22 22 22 22 21 20 19 19 19 20 21 22 23 24 25 26 26 25 25 25 24 24 24 24 24 24 24 23 23 23 23 23 23 23 23 22 22 23 23 23 24 24 25 25 25 25 25 26 26 26 26 26 26 26 26 26 26 26 25 25
6 7 8 9 10 10 9 10 12 14 15 16 15 15 15 16 18 19 19 19 19 19 19 20 21 21 22 22 22 22 21 20 20 20 20 21 22 23 24 26 26 27 26 25 25 24 24 24 24 24 24 24 23 23 23 23 23 23 23 23 22 22 22 23 23 24 24 24 25 25 25 25 26 26 26 26 26 26 26 26 26 26 26 25 25 25
4 6 7 8 9 9 10 10 12 13 15 17 17 17 17 17 18 19 19 19 19 20 20 21 22 23 23 23 22 22 21 21 21 21 22 22 23 25 26 27 27 27 26 25 25 24 24 24 24 24 24 24 23 23 23 23 23 23 23 23 22 22 23 23 24 24 25 25 25 25 25 26 26 26 26 26 26 26 26 26 26 26 26 25 25 25
3 4 6 7 9 9 10 11 11 12 14 16 17 19 19 19 19 19 20 19 19 20 21 22 24 25 24 24 23 22 22 22 22 22 23 24 26 27 28 29 28 27 26 26 25 25 24 24 24 24 24 24 23 23 23 23 23 23 23 23 22 22 23 23 24 25 25 25 25 25 26 26 26 26 26 26 26 26 26 26 26 26 25 25 25 25
4 5 5 7 8 10 10 10 11 12 13 14 15 17 18 19 21 21 21 20 20 20 21 23 25 26 26 25 23 22 22 22 22 23 23 25 27 29 30 30 29 28 27 26 25 25 25 25 24 24 24 24 24 24 24 24 24 23 23 23 23 23 23 24 25 25 25 25 25 26 26 26 26 26 26 26 26 25 25 25 25 25 25 25 25 25
5 5 6 6 7 8 9 10 11 12 12 13 13 13 15 17 20 22 23 22 21 21 21 22 24 26 27 26 24 23 23 23 23 23 24 26 28 30 30 30 29 28 27 27 26 26 26 25 24 24 24 24 24 24 24 24 24 24 23 23 24 24 24 25 25 25 25 25 25 25 26 26 26 26 26 26 25 25 25 25 25 25 25 25 25 25
5 5 6 6 6 7 8 9 10 11 12 13 14 14 14 16 18 20 22 22 23 24 23 23 24 25 27 27 25 24 25 25 25 26 27 28 30 30 30 29 28 28 28 28 27 27 27 26 25 25 25 25 24 24 24 24 24 24 24 24 25 25 25 25 25 25 25 25 25 25 25 26 26 26 26 26 25 25 25 25 25 25 25 25 25 25
5 5 6 6 6 6 8 9 10 11 13 15 15 15 16 17 17 17 18 20 22 24 25 25 25 25 24 24 24 24 25 25 26 28 30 31 31 31 30 30 29 29 29 29 29 29 28 27 26 26 26 26 26 25 25 25 24 24 25 25 26 26 26 26 25 25 25 24 24 24 25 26 26 26 26 25 25 25 25 25 25 25 25 24 24 24
4 5 5 5 5 7 9 10 12 12 13 14 14 15 16 18 18 17 17 18 20 22 24 25 26 25 24 21 20 21 23 24 26 29 31 31 31 31 30 30 30 30 30 30 30 30 30 29 28 29 29 28 28 27 26 25 25 25 26 26 26 26 26 26 25 25 24 24 24 24 25 25 26 26 25 25 25 25 25 25 25 25 24 24 24 24
4 4 5 5 6 7 9 11 11 11 12 13 14 15 16 18 18 18 18 19 20 22 22 23 24 24 23 20 18 18 20 24 27 30 31 31 30 30 29 29 29 29 30 30 30 31 31 31 31 31 31 30 29 28 27 26 26 27 27 27 27 27 26 25 25 24 24 24 24 25 25 26 26 25 25 25 25 25 25 25 25 24 24 24 23 23
5 5 6 6 6 7 9 10 11 11 11 13 14 16 17 18 19 19 19 20 21 22 23 23 23 23 20 18 17 18 20 24 28 29 30 31 30 29 27 27 28 28 29 29 30 31 32 32 32 32 32 31 30 29 28 28 28 28 28 28 27 26 26 25 24 23 23 24 24 25 25 26 26 26 25 25 25 25 25 25 25 24 24 23 23 22
5 5 6 6 6 7 8 9 10 11 12 14 15 16 17 19 19 19 19 19 21 21 21 22 22 21 19 18 18 20 23 26 28 28 29 30 30 29 26 26 26 27 28 28 30 32 33 33 33 33 33 32 30 29 29 29 29 29 28 28 27 26 25 24 23 23 23 24 25 25 25 26 26 26 25 25 25 25 25 25 25 24 24 23 23 22
4 4 5 5 6 7 7 8 9 11 13 14 15 16 17 17 18 18 18 19 19 19 18 18 15 14 15 20 22 23 26 28 28 27 27 28 28 28 25 24 24 25 27 28 29 31 32 33 33 34 33 31 30 30 30 30 29 29 28 28 26 25 24 23 22 23 23 24 25 25 26 26 26 26 25 25 25 25 25 25 24 24 23 23 22 22
3 4 4 5 6 6 7 7 9 11 13 15 16 17 17 17 17 18 18 18 18 18 18 17 14 12 12 17 21 26 29 29 28 27 27 27 27 27 25 23 23 24 26 28 29 30 30 32 33 33 32 31 30 30 29 29 29 29 28 27 26 24 23 23 23 23 24 24 25 25 25 26 26 25 25 25 25 24 24 24 24 23 23 22 22 21
2 3 4 5 6 7 7 8 9 11 13 15 16 18 19 19 18 18 17 17 17 17 17 16 16 16 16 18 24 29 30 30 28 26 25 25 26 26 24 22 22 24 26 27 28 29 30 31 33 33 31 30 29 29 28 28 28 28 27 26 25 24 23 23 23 23 24 24 24 24 25 25 25 25 25 25 25 24 24 24 23 23 23 22 22 22
1 3 4 6 7 8 8 9 10 11 12 14 15 17 18 19 19 19 18 18 18 18 18 17 17 18 19 22 27 30 30 29 27 25 23 24 25 25 23 22 23 25 26 27 27 28 29 31 32 32 31 29 28 27 27 27 27 26 26 25 25 24 23 23 23 23 23 23 24 24 25 26 26 25 25 25 24 24 24 23 23 23 23 22 22 22
1 2 4 6 7 8 9 10 10 11 12 13 15 16 18 19 20 20 20 20 20 20 20 19 19 21 22 24 28 30 28 26 25 23 21 22 22 23 22 22 24 25 26 26 27 28 29 31 31 31 29 27 26 26 26 26 26 26 26 26 25 24 23 23 22 22 22 23 24 25 25 26 26 26 25 25 24 24 24 23 23 23 23 23 22 21
2 3 4 6 7 8 9 10 11 11 12 13 14 16 17 18 19 20 22 22 22 22 22 21 23 25 26 27 28 28 24 23 22 21 20 19 21 22 22 23 24 25 25 26 27 28 29 30 30 29 27 26 25 24 25 25 25 26 26 26 25 24 22 21 21 21 22 23 24 25 25 26 26 26 25 24 24 24 23 23 23 23 23 22 21 20
3 4 5 6 7 8 9 11 11 12 12 13 14 15 16 16 18 19 21 21 22 22 23 24 26 27 27 26 25 23 21 20 20 19 18 15 18 22 23 24 24 24 24 26 27 29 29 29 28 27 26 24 23 23 24 25 26 26 26 25 24 23 21 21 21 21 22 23 24 25 26 26 26 25 25 24 24 23 23 23 23 23 22 21 20 19
6 6 7 7 8 9 10 11 12 12 13 14 14 15 15 16 17 17 18 20 21 22 23 25 25 25 24 23 21 20 19 19 19 17 15 14 17 21 24 25 24 24 24 26 27 27 28 27 27 26 24 23 22 22 23 25 26 26 25 24 23 22 21 21 21 22 23 24 25 26 26 26 25 25 25 24 24 23 23 23 23 22 22 21 19 18
6 7 7 8 8 9 10 11 12 12 13 14 14 15 15 16 17 18 18 19 20 21 22 22 22 22 21 20 19 19 21 21 19 16 14 14 17 22 24 24 23 23 25 26 27 27 26 26 25 24 22 21 21 22 24 26 26 25 24 23 22 22 21 21 22 23 24 25 25 26 26 26 25 25 25 24 23 23 23 23 23 22 21 20 19 18
6 7 7 8 9 9 10 10 11 12 12 13 13 14 16 17 18 19 20 20 20 21 21 20 19 19 20 19 19 20 23 21 17 14 15 16 18 21 23 23 23 23 25 26 26 26 25 24 23 22 21 21 22 24 25 25 25 24 23 22 22 22 22 22 23 23 24 24 25 25 25 25 25 25 24 24 23 23 23 23 23 22 21 19 18 18
6 7 8 8 9 9 9 10 11 11 12 12 12 13 15 17 19 20 21 21 21 21 19 17 16 17 19 19 19 22 24 20 15 13 16 19 20 20 22 23 23 24 25 25 25 24 22 21 20 19 19 21 23 25 26 25 24 23 22 22 22 22 22 23 23 23 24 24 24 25 25 25 25 24 24 24 23 23 23 23 23 22 20 19 19 19
6 7 7 8 9 9 10 11 11 12 13 13 13 13 15 17 18 19 20 21 21 20 18 15 14 14 14 17 20 23 23 17 13 14 19 22 20 18 21 22 23 24 24 25 25 23 20 18 16 17 19 22 24 25 25 24 23 21 21 21 22 22 22 22 23 23 24 24 24 24 25 25 25 24 24 24 23 23 23 23 23 21 20 20 20 20
6 7 8 9 9 10 11 12 13 13 14 15 15 15 16 17 17 18 19 20 20 19 17 16 15 14 15 18 21 22 20 13 12 17 23 23 20 19 21 22 23 23 24 25 25 23 19 16 15 17 20 23 24 24 24 23 22 21 21 21 22 22 22 22 23 23 23 24 24 24 24 24 24 24 24 24 23 23 23 23 22 21 20 20 20 19
7 8 8 9 10 12 13 14 14 15 16 16 16 17 17 17 18 18 19 19 18 18 17 17 17 17 17 18 18 16 13 13 16 21 25 22 20 20 22 22 22 23 23 23 20 17 17 17 17 18 21 24 24 24 24 23 22 21 22 22 22 22 22 22 23 23 23 23 23 23 24 24 24 24 24 24 24 23 23 23 22 20 19 20 20 19
7 8 9 10 12 13 14 15 16 17 17 17 17 17 18 18 18 19 19 19 18 17 18 18 18 18 17 14 10 6 7 15 22 24 25 21 19 20 22 21 22 22 21 19 13 9 12 17 20 22 23 24 24 24 23 23 22 22 22 22 22 22 22 23 23 23 23 23 23 23 23 23 24 24 24 24 24 23 23 23 22 20 18 20 20 19
8 9 10 12 13 15 16 17 17 17 18 18 18 18 18 18 18 18 18 18 18 18 18 19 19 19 18 15 10 8 11 20 24 25 24 21 20 21 21 21 21 21 21 18 14 10 8 12 20 26 25 25 24 24 23 22 22 22 23 23 23 23 23 23 23 23 22 22 22 22 23 23 23 23 23 24 24 24 23 23 22 21 20 20 20 19
9 10 12 13 15 16 16 17 17 17 17 17 17 17 17 17 17 17 17 17 17 17 18 19 20 20 20 19 17 17 20 24 26 25 24 22 21 21 22 22 22 22 21 19 18 15 12 15 20 25 25 24 23 23 23 22 22 23 23 23 23 23 23 23 23 23 22 22 22 22 22 22 22 23 23 23 23 24 24 23 22 22 21 21 19 18
10 11 13 14 14 15 15 16 16 16 16 16 17 17 17 17 17 16 16 16 16 16 17 18 19 20 20 20 20 21 23 26 26 26 25 23 22 22 23 23 22 22 22 21 20 19 18 19 21 22 23 23 23 22 22 23 23 23 23 23 23 23 24 24 23 22 22 22 22 22 22 22 22 22 22 23 23 23 24 23 22 21 21 20 18 17
10 11 12 13 14 15 15 16 16 16 17 17 17 17 17 17 17 17 17 17 17 17 17 17 18 19 20 20 20 22 24 27 28 28 28 26 24 22 23 22 22 22 21 21 20 20 19 20 22 22 22 22 22 22 22 23 23 23 23 23 23 23 23 23 23 22 22 22 22 22 22 23 23 22 22 22 23 23 23 22 22 21 20 20 19 18
10 10 11 12 14 15 17 17 17 18 18 18 18 18 18 18 19 19 19 19 19 19 19 19 19 19 20 21 22 24 27 29 30 30 29 28 26 24 21 22 22 22 21 20 20 19 19 20 21 22 21 20 20 21 23 24 24 24 23 23 23 23 23 23 22 21 21 21 21 22 22 22 22 22 23 23 23 23 23 22 21 20 20 19 19 18
10 10 11 13 15 16 17 18 18 19 19 19 19 19 20 20 20 21 21 21 21 21 20 20 20 20 20 21 22 25 27 29 30 29 28 28 27 25 23 23 23 23 21 20 20 20 20 19 20 20 19 18 18 20 23 25 25 24 24 23 23 23 23 22 21 20 20 20 21 21 22 22 22 22 22 23 23 23 23 22 22 21 20 19 18 17
10 11 13 14 15 17 18 19 19 20 20 20 21 21 21 21 22 22 22 22 22 22 21 21 21 21 21 21 23 24 26 27 28 27 26 26 26 25 24 24 24 23 21 20 19 19 19 18 16 15 16 17 19 21 23 23 24 24 24 24 23 23 22 22 21 20 20 21 21 22 22 22 22 22 23 23 23 24 24 23 23 22 20 19 18 17
11 12 13 14 15 16 18 18 19 20 20 20 21 21 22 22 22 22 22 22 22 22 22 22 22 22 22 22 22 23 23 24 24 24 24 23 23 23 22 22 22 21 20 19 18 17 17 16 15 15 15 17 20 22 23 22 22 23 24 24 24 23 22 22 21 20 20 21 22 22 22 22 23 23 23 23 23 23 23 23 23 22 21 20 19 18
11 13 14 14 15 16 17 18 19 19 20 20 21 21 22 22 23 23 23 22 22 22 22 22 22 23 23 22 22 21 21 21 21 21 21 21 21 20 20 19 19 19 19 18 18 17 17 17 16 17 17 17 19 21 22 22 22 23 23 22 22 22 23 22 21 20 21 22 22 22 22 22 23 23 23 23 23 22 22 23 22 21 20 19 18 18
12 13 14 15 16 16 17 18 19 19 20 21 21 21 22 23 24 25 24 24 24 24 24 25 25 25 24 23 22 21 20 20 19 19 19 19 18 18 18 18 18 19 20 19 19 18 18 17 17 17 17 18 19 20 21 22 23 22 22 20 20 22 22 22 21 21 22 22 23 22 22 22 23 23 23 23 23 23 23 22 21 20 19 18 18 17
12 13 14 15 16 17 18 19 19 20 20 21 21 22 22 23 24 25 25 26 26 26 26 27 27 26 26 24 23 21 20 20 19 18 18 18 17 17 18 18 19 20 21 20 19 19 18 17 17 16 17 17 18 19 20 22 23 22 20 20 20 21 21 21 22 23 23 23 23 23 23 22 23 23 24 23 23 23 23 22 20 18 17 17 17 17
12 13 14 16 17 18 19 20 21 21 22 22 22 22 22 22 23 23 24 25 25 26 26 27 26 25 24 24 23 22 21 20 19 18 17 17 18 18 18 19 20 21 21 20 19 18 18 18 17 17 18 18 18 18 20 21 22 22 21 20 20 19 18 20 23 24 24 24 23 23 23 23 23 23 23 23 23 23 22 21 20 18 17 17 17 17
12 13 15 16 17 18 19 21 22 22 22 22 22 22 22 22 22 23 23 23 24 25 26 26 25 24 23 22 22 22 21 20 19 18 18 18 18 18 19 19 20 21 21 20 18 17 17 18 18 19 20 19 18 18 19 20 21 21 20 20 19 18 17 19 22 24 24 24 24 23 23 23 23 24 23 23 22 22 21 21 20 19 18 17 17 16
12 14 15 17 18 19 20 21 22 22 22 22 22 23 23 23 23 23 22 23 24 25 25 25 24 22 21 21 21 22 21 21 20 20 20 19 18 18 19 20 21 21 21 20 19 18 17 17 19 20 21 20 19 18 18 18 19 19 20 20 20 20 20 21 21 22 22 23 24 24 24 24 24 23 22 22 22 22 21 20 19 19 18 18 17 16
12 14 16 17 18 20 21 22 22 23 23 23 23 23 23 24 24 23 23 23 23 24 24 23 22 20 19 20 21 22 22 21 21 21 21 21 20 19 19 20 21 22 22 21 19 18 17 17 19 20 20 20 18 17 17 17 17 18 20 21 21 21 21 22 22 21 22 22 23 24 25 25 24 22 21 21 22 21 21 20 19 18 18 18 18 17
12 14 16 18 19 20 21 22 22 23 23 23 23 23 23 24 24 24 23 23 23 23 23 23 21 20 19 20 20 21 21 21 22 22 21 21 20 20 20 20 21 22 22 21 19 18 17 16 16 17 18 17 16 15 16 17 18 19 20 22 22 22 21 22 22 22 22 22 23 24 25 25 23 21 20 20 21 20 20 20 19 18 18 18 18 18
13 15 16 18 19 20 21 22 22 23 23 23 24 24 23 23 23 23 23 24 24 23 23 22 22 21 20 20 20 20 20 20 21 21 21 21 20 20 20 21 22 22 22 21 20 19 17 16 14 12 13 13 13 14 16 19 20 20 20 21 21 21 21 22 23 24 23 23 24 25 25 23 21 20 20 19 19 19 19 19 19 19 19 19 19 19
13 14 16 17 18 19 20 21 22 22 23 23 24 24 24 23 23 22 23 23 23 22 22 22 21 20 20 20 20 20 20 20 20 20 20 20 20 20 21 21 22 22 22 22 21 20 19 17 14 10 8 8 10 13 17 20 21 21 21 20 20 20 21 23 24 25 24 24 25 25 24 22 21 19 18 16 16 17 18 18 19 19 20 20 20 19
12 14 15 17 18 19 20 21 21 21 22 22 23 23 24 24 24 23 23 23 22 22 21 21 20 20 19 20 20 20 20 20 20 20 20 19 19 20 20 21 22 22 21 22 22 22 21 20 17 13 9 7 9 12 16 19 21 22 21 20 20 21 22 23 25 26 26 26 26 26 25 23 21 18 16 15 14 15 16 17 18 19 20 21 20 20
12 14 15 16 17 18 19 20 20 21 21 21 22 23 24 24 25 25 24 24 23 22 21 20 20 19 19 19 19 20 20 20 20 20 19 19 19 19 20 21 21 21 20 20 20 20 20 18 16 15 14 12 11 12 14 17 19 21 21 22 22 23 23 24 25 27 27 27 26 25 23 21 19 17 15 14 13 13 14 16 17 18 20 20 20 19
Wind_Direction
335 336 337 338 340 343 346 348 345 344 346 350 353 357 2 5 7 6 4 1 358 356 355 354 352 350 347 345 343 339 336 332 328 325 324 323 323 323 322 322 322 322 321 320 319 317 316 315 314 313 312 311 311 310 310 310 311 311 312 312 312 313 314 314 315 315 315 315 315 315 314 315 314 315 315 315 315 316 315 314 313 312 312 312 312 312
346 347 348 347 342 339 342 347 349 349 351 355 358 360 2 5 6 7 5 2 360 357 355 353 351 349 346 345 342 339 336 333 329 326 324 323 323 322 322 323 323 323 322 321 319 318 316 315 314 313 312 311 311 310 310 310 311 311 312 312 313 313 314 314 315 315 315 316 316 315 315 315 315 315 315 315 315 315 315 314 313 313 312 312 312 312
347 350 349 345 340 337 340 349 355 357 357 358 359 0 0 1 3 3 3 1 360 358 355 353 350 348 345 344 341 339 337 333 330 327 324 323 322 322 323 323 324 324 323 322 320 319 317 316 314 313 312 311 311 311 310 311 311 312 312 313 313 314 314 315 315 316 316 316 316 316 316 316 316 316 316 316 316 316 315 315 314 313 313 313 313 312
337 341 342 343 344 346 350 354 357 360 1 0 0 0 360 359 360 0 0 359 357 356 354 352 349 346 343 342 341 339 337 334 330 327 325 324 323 323 324 324 325 325 324 323 322 320 318 316 315 314 313 312 312 312 312 312 312 313 313 313 314 314 315 315 316 316 317 317 317 317 317 317 317 317 317 316 316 316 316 315 315 315 314 314 314 313
326 333 338 343 349 353 358 359 359 359 359 359 359 360 359 358 358 358 359 358 355 352 351 350 348 345 343 341 340 339 337 334 331 329 327 326 325 324 325 326 327 327 326 325 324 322 319 318 317 315 314 314 313 313 313 313 314 314 314 314 314 314 315 316 317 317 318 318 318 318 318 318 318 318 317 317 317 316 316 316 316 315 315 315 314 313
317 325 334 343 350 355 359 3 2 358 354 354 356 358 358 357 356 355 355 353 352 350 349 348 347 345 344 343 342 340 338 336 334 333 331 328 327 326 326 327 328 328 328 327 326 324 322 320 318 317 316 315 315 315 315 315 315 315 315 315 314 315 315 316 318 318 319 319 318 318 318 318 319 319 318 318 317 317 317 317 316 316 316 315 315 314
312 323 334 346 355 359 2 5 4 359 352 349 351 353 354 354 352 350 349 349 349 348 347 347 347 346 346 346 344 343 341 340 339 337 334 331 329 328 328 329 329 329 329 329 328 326 324 322 320 319 318 317 317 317 317 317 317 316 316 315 315 315 316 317 318 319 319 319 319 319 319 320 320 319 319 319 318 318 318 317 317 317 317 316 315 314
327 335 344 351 355 358 1 5 5 1 355 351 348 348 349 349 347 345 345 347 348 347 345 344 345 347 349 349 348 345 344 342 340 338 335 333 331 330 330 330 330 330 330 330 330 328 327 325 323 321 320 319 318 319 319 318 318 317 317 316 316 316 316 317 318 319 319 319 320 320 320 321 321 320 320 319 319 319 318 318 318 318 318 316 315 315
353 351 356 1 357 351 351 357 1 1 357 354 351 348 345 344 342 341 342 344 346 346 343 342 342 345 349 351 351 348 346 343 340 337 333 331 330 330 330 331 331 332 332 332 331 330 329 327 325 322 321 320 320 320 320 319 319 318 318 317 317 316 317 318 318 319 319 320 320 321 321 322 321 321 321 320 320 320 320 320 320 319 318 317 316 315
6 359 359 7 3 355 347 345 351 356 356 353 353 351 348 343 341 339 339 340 343 345 343 341 340 341 344 350 352 351 347 344 340 336 332 329 329 330 331 331 331 332 333 333 332 331 331 329 326 324 323 322 321 321 320 320 319 319 318 318 318 317 317 318 318 319 319 320 321 322 323 323 323 322 322 322 322 322 322 322 321 320 319 317 317 316
5 6 3 1 360 355 346 341 344 349 352 352 354 356 355 350 344 339 335 334 337 340 341 340 339 338 339 343 348 350 347 342 338 334 331 330 331 332 333 333 333 334 334 334 334 333 333 331 329 327 325 324 323 322 322 321 320 320 319 319 319 319 319 319 319 319 320 321 322 323 323 324 324 324 324 324 324 324 323 323 322 320 319 318 317 317
3 4 1 355 349 345 342 343 346 351 353 354 355 354 350 350 345 338 332 329 330 334 336 336 337 338 339 340 342 344 343 337 332 329 329 330 333 336 337 337 337 336 337 336 336 336 335 333 331 330 328 327 326 325 323 322 321 320 320 320 320 320 320 320 320 320 321 322 323 324 324 324 325 325 325 325 325 325 325 324 323 321 320 319 318 317
12 3 352 346 344 343 342 346 350 354 356 357 353 346 339 340 340 336 330 326 327 330 332 332 333 336 341 344 344 342 337 331 327 326 327 329 333 336 337 336 336 336 337 336 336 337 336 335 333 332 331 330 329 328 326 324 322 322 322 321 321 321 321 321 321 322 323 323 324 324 325 325 326 326 326 327 327 326 326 325 324 322 321 320 319 319
18 8 357 354 352 350 348 350 353 354 353 350 344 337 333 334 336 336 332 328 329 331 332 331 331 334 340 346 347 341 333 327 325 325 326 328 332 335 336 334 334 334 335 334 334 335 335 334 333 332 333 332 332 331 329 326 325 324 323 323 322 322 322 322 323 323 324 325 325 325 326 326 326 327 328 328 328 328 327 326 325 324 323 322 321 320
20 11 5 1 357 353 351 351 351 348 343 338 334 332 332 335 338 338 335 331 331 333 335 334 334 336 340 345 344 339 332 328 327 327 326 326 331 335 335 332 331 332 333 332 332 333 335 334 333 333 333 333 333 331 329 327 326 325 325 324 324 323 323 323 324 325 326 326 327 327 327 328 328 329 329 329 329 328 328 327 327 326 325 324 323 323
21 9 3 355 351 350 350 346 342 336 330 329 331 333 336 337 338 338 335 332 332 334 337 338 338 338 338 341 341 338 334 331 329 327 324 323 328 334 336 332 329 328 330 330 331 332 334 334 334 333 333 333 332 330 329 328 327 327 326 326 326 325 325 326 326 327 328 328 328 329 329 329 329 330 330 330 329 329 328 328 328 327 326 326 325 325
15 5 357 347 343 344 345 338 330 325 324 327 331 335 337 337 336 335 332 331 333 335 338 339 339 336 333 333 334 335 335 332 329 326 322 319 324 331 335 331 327 326 327 329 330 331 332 333 333 333 333 332 331 330 329 328 328 328 328 328 328 328 328 328 329 329 330 330 330 330 330 330 330 331 331 331 330 330 329 329 329 328 328 328 328 328
357 352 350 344 339 338 337 328 324 323 325 329 332 335 336 336 336 334 332 332 333 334 333 333 331 326 323 323 325 329 334 330 327 323 320 317 321 327 332 331 328 326 327 327 329 330 331 331 332 332 331 331 331 330 329 329 328 329 329 330 331 331 331 331 332 332 331 332 332 332 331 331 332 332 332 332 331 331 331 330 330 330 330 330 330 330
341 339 342 342 339 337 332 326 323 325 327 330 331 332 332 334 334 334 332 332 331 330 328 325 321 317 314 311 317 325 332 329 325 321 318 315 318 324 330 331 329 327 327 327 329 330 331 331 331 331 331 331 331 331 330 329 329 330 332 333 334 334 334 334 334 334 333 333 333 333 332 332 333 333 334 334 334 334 333 333 333 332 332 333 332 332
313 326 340 341 339 335 331 331 331 331 328 328 329 328 327 329 331 331 330 330 329 327 324 320 316 313 312 311 316 324 333 331 326 320 316 313 315 321 328 330 330 329 327 327 329 331 331 330 330 331 332 332 332 331 330 330 331 333 335 337 338 338 338 337 336 335 335 335 335 334 334 334 334 335 336 336 337 337 336 336 335 335 335 335 334 335
279 321 346 347 341 334 329 333 335 334 330 328 327 327 326 328 329 329 329 329 328 326 324 320 314 312 312 309 313 321 333 331 324 317 315 313 314 319 326 331 331 330 328 328 330 331 331 330 330 331 332 333 332 332 332 332 334 337 339 340 340 340 339 339 339 338 337 337 337 337 336 336 336 337 338 339 340 340 339 338 337 337 336 336 336 337
313 332 350 353 346 337 333 335 338 337 334 330 328 326 326 327 326 326 327 327 326 324 320 315 311 310 310 307 312 322 332 331 324 316 314 312 312 317 326 331 332 331 328 329 330 331 331 330 331 332 333 333 333 333 334 335 338 340 341 341 341 340 340 341 341 341 340 340 340 340 340 339 339 340 340 341 341 341 341 339 339 338 337 337 338 340
5 1 2 359 352 346 342 341 340 339 337 333 329 327 326 324 322 321 321 322 321 318 315 312 311 311 311 311 315 323 332 334 330 324 316 310 310 316 325 331 333 331 329 329 330 331 331 330 330 332 334 336 336 336 337 339 341 341 341 341 342 342 342 343 343 343 343 342 341 341 341 341 342 343 343 342 342 341 341 340 339 338 338 339 341 343
14 11 8 2 355 349 345 342 340 339 338 335 332 329 327 325 322 320 320 320 320 318 316 315 315 316 318 320 323 327 333 336 333 328 320 310 310 316 324 331 333 331 328 329 330 330 329 329 330 332 336 339 341 342 342 342 342 341 341 342 344 345 346 346 346 345 343 342 342 342 342 342 343 343 343 342 342 342 342 341 341 340 340 342 344 346
14 11 7 2 357 351 346 343 340 339 338 335 334 332 331 329 327 325 326 327 327 325 324 322 321 321 323 326 328 330 334 339 338 333 328 318 315 318 325 332 334 332 328 329 330 330 329 327 329 333 338 343 346 345 344 342 342 341 342 344 346 347 348 348 346 344 343 343 343 343 343 343 343 344 343 343 343 343 343 343 342 342 343 345 348 349
16 12 7 3 358 353 348 344 343 341 340 339 337 335 334 332 330 330 332 335 336 334 332 330 327 324 326 328 329 330 333 339 341 338 336 331 324 322 326 333 336 333 329 329 330 331 329 326 328 334 341 345 344 343 342 342 341 342 344 346 347 348 347 346 345 344 343 343 342 343 343 344 344 344 344 344 344 345 344 344 344 345 347 349 351 350
14 10 5 0 356 353 350 349 348 348 347 347 345 341 337 334 333 333 336 340 339 336 335 332 328 326 328 330 329 328 330 334 337 337 336 335 330 326 328 334 336 335 331 330 330 330 328 325 328 336 343 344 342 340 341 341 341 343 345 347 347 347 346 345 344 343 343 342 342 343 344 345 346 346 346 345 345 345 345 345 346 347 350 351 352 351
13 9 4 1 358 356 356 355 354 353 352 353 351 347 342 339 336 334 335 339 338 334 331 327 325 324 326 325 323 323 325 329 334 336 334 337 334 327 329 334 337 337 334 331 330 329 329 330 334 341 344 342 341 340 341 341 342 343 345 346 346 345 345 344 344 343 342 341 342 343 345 346 347 347 347 347 346 346 347 347 348 349 352 353 352 352
11 8 6 3 1 360 359 357 356 354 354 354 353 350 346 343 339 336 336 338 335 329 323 321 319 319 319 318 319 321 325 330 335 336 335 339 335 328 330 335 338 339 338 334 332 332 334 336 340 342 342 341 340 340 340 341 342 343 344 345 345 344 344 344 343 342 342 341 342 343 344 346 346 347 347 347 347 347 348 348 349 350 352 353 353 352
8 6 5 4 3 2 360 358 356 355 354 354 353 351 348 346 342 340 339 337 332 323 317 315 315 316 318 321 323 325 327 331 332 334 337 339 335 330 331 334 337 339 341 339 337 334 333 334 338 340 340 340 339 339 339 340 341 343 343 344 344 344 344 343 343 342 341 341 342 343 344 345 346 346 347 347 348 348 349 350 351 352 352 353 353 352
6 6 5 5 4 3 0 358 356 354 354 354 353 351 349 346 343 341 338 335 328 320 313 311 311 312 316 321 325 324 317 320 326 332 336 338 332 327 330 331 333 336 340 342 340 331 327 329 332 335 338 338 338 338 339 339 340 342 342 343 343 343 343 343 342 341 340 341 342 343 344 345 346 346 346 347 348 349 350 351 352 353 353 352 352 351
6 7 7 6 4 2 359 356 354 352 352 352 351 350 348 346 343 340 336 331 325 319 312 308 307 308 309 308 302 294 299 309 321 330 332 332 328 324 326 327 328 330 334 337 334 325 317 321 325 329 333 335 336 336 337 338 339 341 342 342 342 342 342 342 341 340 339 340 341 342 344 345 345 346 346 346 348 350 352 353 353 353 352 351 350 350
9 9 8 5 1 358 354 352 350 350 350 350 350 350 349 346 343 339 335 331 325 319 313 308 305 305 305 302 297 294 298 307 318 327 329 327 324 322 323 324 324 325 327 330 327 322 313 314 319 324 328 331 333 334 335 337 338 340 341 341 341 340 340 340 340 340 339 339 340 341 342 343 344 345 346 346 347 349 351 352 353 353 353 351 350 349
11 9 6 0 355 351 349 349 350 352 352 353 353 352 351 349 346 343 339 335 329 323 317 310 305 302 302 301 300 299 302 311 321 327 326 323 320 319 319 320 320 322 324 326 326 323 319 317 319 323 325 327 330 332 334 335 337 339 340 340 339 339 338 339 339 338 338 339 340 341 341 342 342 343 344 346 346 347 349 350 351 352 353 352 350 348
12 7 1 354 349 348 349 352 355 356 357 357 357 356 354 352 350 348 345 341 336 331 324 318 311 305 299 297 296 298 302 313 323 327 325 320 315 313 314 315 316 318 320 321 323 324 322 321 322 324 324 326 328 330 332 334 335 336 338 339 338 337 337 337 337 336 337 339 339 340 341 341 342 342 342 343 344 345 346 347 348 350 351 351 351 351
8 3 358 353 351 352 354 357 358 359 359 360 359 358 356 354 352 350 348 345 341 336 331 326 320 313 306 299 294 294 300 312 321 326 324 319 314 309 307 308 310 313 315 316 319 320 320 320 321 323 325 326 327 329 330 332 333 335 337 338 337 337 336 337 336 336 337 338 339 339 340 340 340 340 340 341 342 343 344 346 347 348 347 348 351 353
5 2 360 358 357 356 357 359 360 359 359 359 359 358 357 355 353 351 349 346 343 339 335 331 326 320 315 309 303 300 304 312 319 323 324 322 316 309 302 302 306 309 311 312 313 316 318 319 320 323 326 326 326 326 327 329 332 334 335 336 335 336 336 336 337 337 338 338 338 338 339 339 338 338 338 338 340 341 343 345 347 347 347 348 349 351
8 6 5 3 1 360 359 360 0 359 358 358 357 356 355 354 352 350 348 346 343 341 337 333 329 326 322 318 315 313 312 316 321 325 326 325 321 314 306 302 306 310 311 311 311 314 317 319 321 324 325 324 323 322 323 325 328 331 332 332 333 334 336 337 338 338 338 337 337 337 338 338 337 337 337 338 339 340 341 342 344 344 344 346 347 349
11 9 7 5 3 2 1 0 360 359 359 358 357 356 355 353 351 349 347 345 343 341 338 335 332 329 327 326 325 324 324 326 328 330 330 331 330 326 320 313 313 316 319 319 318 318 318 318 319 320 321 321 320 320 321 323 325 327 328 330 333 335 336 337 337 338 338 337 337 336 336 337 337 337 337 338 338 338 338 338 339 339 339 340 342 346
12 10 8 6 5 5 3 2 1 1 0 360 359 359 356 353 351 349 348 346 345 343 342 339 335 333 332 332 333 334 335 337 338 338 338 339 339 339 335 331 329 330 331 331 329 326 323 320 318 316 316 316 316 316 318 320 322 324 327 329 331 333 334 335 336 336 337 337 336 336 336 336 337 337 337 337 336 334 334 334 334 335 336 336 337 340
12 10 7 6 6 7 7 6 5 4 3 1 360 359 358 355 351 348 347 347 347 347 346 343 340 337 337 339 341 344 345 346 346 346 346 346 345 344 343 341 340 339 339 337 334 330 326 322 319 316 314 313 312 313 314 315 318 322 325 325 325 326 328 332 334 336 336 337 336 336 335 336 336 337 337 336 334 333 333 332 332 332 334 336 337 338
12 9 6 6 6 7 8 7 7 6 5 3 2 1 360 356 352 348 345 344 344 345 346 344 341 338 337 339 343 348 350 352 352 352 351 350 347 345 342 341 339 338 338 337 335 331 328 323 319 316 314 312 311 311 311 312 316 320 322 322 323 325 328 332 334 335 335 335 335 335 335 334 334 334 334 333 333 333 334 334 334 333 333 335 339 341
10 8 7 8 8 8 8 7 7 7 7 6 4 2 1 358 353 349 345 342 341 342 344 343 340 337 335 336 340 345 349 353 355 356 354 351 348 345 342 340 338 337 338 339 337 333 328 324 319 315 312 311 309 307 306 309 313 318 322 324 328 330 331 331 332 333 333 333 333 333 333 333 332 332 331 331 332 333 335 336 337 338 338 340 343 346
8 8 8 9 10 9 8 8 8 7 6 3 2 1 1 359 356 351 346 343 341 342 343 342 340 339 337 337 339 341 345 350 354 356 355 353 350 347 344 342 341 340 341 341 339 333 328 324 319 316 314 311 307 304 304 306 310 316 322 327 331 331 328 325 326 328 330 330 331 332 332 332 331 330 331 333 334 335 336 337 340 343 345 348 349 351
7 8 9 10 10 10 9 8 7 5 4 2 1 1 1 359 357 353 349 345 343 343 343 342 341 341 340 339 339 341 343 347 351 354 355 354 353 351 348 346 344 344 344 343 340 335 328 321 316 315 315 312 308 304 303 305 310 317 323 328 330 328 325 324 325 326 327 328 329 330 331 331 331 330 331 333 336 337 338 340 343 347 350 353 354 356
8 11 12 12 12 12 11 8 6 4 2 1 1 1 1 359 357 354 352 348 345 343 343 343 343 342 340 339 340 342 344 346 349 351 352 354 354 354 352 350 348 347 346 345 344 340 332 323 316 314 313 311 308 306 307 310 315 319 324 327 327 327 327 328 328 328 328 327 328 329 331 332 332 331 331 332 334 337 340 344 347 351 353 356 357 358
10 12 13 13 12 12 10 8 6 4 1 359 359 360 0 359 357 354 353 351 348 345 344 345 345 343 341 340 342 343 345 346 347 348 349 352 354 355 354 352 351 350 349 348 347 344 340 333 325 318 312 308 307 310 316 321 323 324 324 326 327 327 328 328 328 329 329 328 328 329 331 332 332 331 330 330 333 337 342 348 352 356 358 358 359 360
12 13 13 12 11 10 9 8 6 3 360 358 358 358 359 359 357 354 352 351 349 347 346 346 345 344 343 344 346 347 347 347 347 347 348 350 353 355 355 353 352 352 353 353 352 350 348 346 341 332 321 313 310 313 320 324 325 326 326 327 327 327 327 327 328 329 329 329 329 329 331 330 328 326 325 327 331 337 343 350 355 360 1 2 2 2
15 15 13 12 11 9 7 7 5 2 359 357 356 356 357 358 358 355 352 351 350 349 348 347 346 345 345 346 347 349 350 349 349 348 349 351 353 355 355 354 353 353 354 355 355 355 356 358 360 358 346 331 323 321 323 325 327 329 329 330 329 328 327 327 328 329 329 329 330 331 331 329 327 325 324 325 330 336 343 351 357 2 4 5 6 7
16 16 15 13 11 9 7 6 4 2 359 357 355 353 353 355 356 356 354 352 351 350 349 349 348 347 346 347 348 350 351 351 350 350 351 352 354 355 355 354 354 353 353 355 357 357 358 359 4 9 8 354 339 331 328 328 329 331 332 333 332 331 328 327 327 329 329 329 330 330 330 330 329 330 330 330 332 338 345 353 359 3 6 8 10 12
14 14 15 14 12 10 8 7 5 3 0 357 355 353 353 353 353 354 354 353 351 351 350 351 351 351 350 349 349 350 351 351 351 351 351 353 355 355 355 355 355 355 355 355 356 357 357 356 357 359 359 359 353 344 337 332 331 332 332 333 333 332 330 327 328 329 329 329 329 329 329 329 331 334 336 337 339 343 348 354 358 2 6 9 11 13
Height
809 809 809 808 808 807 806 806 805 804 804 803 802 801 800 800 799 798 797 796 795 794 793 792 791 790 789 788 787 787 786 785 784 783 782 781 781 780 778 777 776 775 773 772 771 770 768 767 766 765 764 762 761 760 759 758 756 755 754 753 752 751 750 748 747 746 745 743 742 741 739 738 737 736 734 733 732 731 729 728 727 726 724 723 721 720
809 809 808 808 807 807 806 806 805 804 803 802 801 800 799 799 798 797 796 795 794 793 792 791 790 789 788 787 787 786 785 784 783 782 781 781 780 779 778 776 775 774 773 771 770 769 767 766 765 764 763 761 760 759 758 756 755 754 753 752 751 750 749 747 746 745 743 742 741 740 738 737 736 734 733 732 731 729 728 727 726 724 723 721 720 719
809 808 808 808 807 807 806 805 805 804 803 802 801 800 799 798 797 796 795 794 794 793 792 791 790 788 787 786 786 785 784 783 782 782 781 780 779 778 777 776 775 773 772 771 769 768 766 765 764 763 762 761 759 758 757 756 754 753 752 751 750 749 747 746 745 744 742 741 740 738 737 736 735 733 732 731 729 728 727 726 724 723 721 720 719 718
809 808 808 808 807 806 806 805 804 803 802 801 801 800 798 797 796 795 794 793 793 792 791 790 789 788 787 786 785 784 783 782 782 781 780 779 778 777 776 775 774 772 771 770 768 767 766 764 763 762 761 759 758 757 756 755 753 752 751 750 749 748 746 745 744 743 741 740 739 737 736 735 733 732 731 730 728 727 726 724 723 722 721 719 718 717
808 808 808 807 807 806 805 804 803 802 802 801 800 799 798 797 796 795 794 793 792 791 790 789 788 787 786 785 784 783 782 781 781 780 779 778 777 776 775 774 773 771 770 769 767 766 765 763 762 761 760 758 757 756 755 754 752 751 750 749 748 747 746 744 743 742 741 739 738 736 735 734 732 731 730 728 727 726 724 723 722 721 719 718 717 715
808 808 808 807 806 806 805 804 803 802 801 800 799 798 797 796 795 794 793 792 791 791 790 789 788 787 786 785 783 782 781 781 780 779 778 777 776 775 774 773 772 770 769 768 766 765 764 762 761 760 759 757 756 755 754 752 751 750 749 748 747 746 745 743 742 741 740 738 737 735 734 732 731 730 728 727 726 724 723 722 721 719 718 717 716 714
808 808 807 807 806 805 805 804 803 802 801 800 798 797 796 796 795 794 793 792 791 790 789 788 787 786 785 784 783 782 781 780 779 778 777 776 775 774 773 772 771 769 768 766 765 764 763 761 760 759 758 756 755 754 753 751 750 749 748 747 746 745 744 742 741 740 739 737 736 734 733 731 730 729 727 726 725 723 722 721 719 718 717 716 714 713
808 808 807 806 806 805 804 803 803 802 801 800 798 796 795 795 794 793 793 792 791 789 788 787 786 785 784 783 782 781 780 778 777 776 776 775 774 773 772 771 769 768 767 765 764 763 761 760 759 758 756 755 754 753 752 751 749 748 747 746 745 744 743 741 740 739 737 736 735 733 732 730 729 727 726 725 723 722 721 719 718 717 716 714 713 712
808 807 807 806 806 805 804 803 803 802 801 800 799 797 796 794 793 792 791 791 790 789 788 786 785 783 783 782 781 780 779 778 777 776 775 774 773 772 771 770 768 767 765 764 763 762 761 759 758 757 756 754 753 752 751 750 748 747 746 745 744 743 741 741 739 738 736 735 734 732 731 729 728 726 725 724 722 721 720 718 717 716 715 713 712 711
808 807 807 806 806 805 804 803 802 802 801 800 800 798 797 796 794 791 790 789 789 789 788 786 785 783 781 780 780 779 778 777 776 776 776 774 773 772 770 769 767 766 764 763 762 761 759 758 757 756 755 753 752 751 750 748 747 746 745 744 743 742 741 739 738 737 736 734 732 731 730 728 727 725 724 722 721 720 718 717 716 715 713 712 711 710
807 807 806 806 806 805 805 804 803 802 801 800 799 798 798 797 795 793 791 789 788 787 786 786 785 784 781 780 778 778 777 776 775 775 775 774 772 771 769 768 766 765 763 762 761 760 758 757 756 755 754 752 751 750 749 747 746 745 744 743 742 741 740 738 737 736 734 733 731 730 729 727 726 724 723 721 720 718 717 716 715 713 712 711 710 709
807 807 806 806 806 805 805 804 803 802 801 800 798 797 797 796 796 795 793 791 789 787 786 785 785 784 783 781 779 777 776 776 775 774 773 772 771 770 768 766 764 763 762 761 759 758 757 756 755 754 752 751 750 749 748 746 745 744 743 742 741 740 739 737 736 735 733 732 730 729 727 726 725 723 721 720 719 717 716 715 713 712 711 710 709 707
807 807 806 806 806 805 804 803 802 801 801 800 799 798 797 797 796 796 794 793 791 789 787 785 784 783 782 781 780 778 777 776 775 773 772 771 770 768 767 765 763 761 761 759 758 757 756 755 754 753 751 750 749 747 746 746 744 743 742 741 740 739 737 736 735 733 732 731 729 728 726 725 723 722 721 719 718 716 715 714 712 711 710 708 707 706
807 807 806 806 806 805 804 803 802 801 801 801 800 800 799 797 796 795 794 792 791 790 788 786 784 782 781 781 780 779 778 776 774 773 771 770 769 768 766 764 762 761 760 759 757 756 756 754 753 751 750 749 747 746 746 745 744 742 741 740 739 738 736 735 734 732 731 730 728 727 725 724 722 721 720 718 717 715 714 712 711 710 709 707 706 705
807 807 806 806 806 805 804 803 803 802 801 801 801 799 798 797 796 795 794 792 790 789 787 786 784 782 781 781 780 780 779 777 775 772 770 769 768 768 766 765 762 761 760 759 757 756 755 754 752 750 749 747 746 746 745 744 743 741 741 739 738 736 735 734 733 731 730 729 727 726 724 723 721 720 718 717 716 714 713 711 710 709 708 706 705 704
807 807 807 806 806 805 804 804 803 802 802 801 800 799 798 797 796 795 794 793 791 789 787 785 783 781 780 780 780 780 778 776 775 772 770 767 766 766 766 765 762 761 760 759 757 755 754 752 751 750 748 747 746 745 744 743 742 741 739 738 737 736 734 733 731 730 729 728 726 725 723 722 720 719 718 716 715 714 712 711 709 708 707 706 704 703
808 807 807 806 806 805 804 804 803 802 802 801 800 799 798 797 796 796 795 793 792 790 789 788 786 784 781 778 778 779 778 777 775 772 770 767 766 766 766 765 763 761 759 758 757 756 754 752 750 749 748 746 746 745 744 742 741 740 739 737 736 735 733 732 731 729 728 727 725 724 722 721 720 718 717 716 714 713 711 710 709 707 706 705 703 702
808 807 807 806 805 805 804 804 803 802 801 801 799 799 798 797 797 796 795 794 793 792 790 789 789 788 785 781 779 778 778 777 775 772 770 767 765 765 765 764 763 761 759 758 757 755 754 752 750 749 748 746 745 744 743 742 741 739 738 736 735 734 732 731 730 729 727 726 725 723 722 720 719 717 716 715 713 712 711 709 708 706 705 704 702 701
807 807 806 806 805 805 804 804 803 802 801 801 799 798 797 797 796 796 795 795 794 793 792 790 789 788 786 783 780 778 778 777 775 773 770 767 765 764 764 764 763 761 759 758 756 755 753 752 750 749 748 746 745 744 743 741 740 739 737 736 735 733 732 731 729 728 727 725 724 722 721 720 718 717 715 714 712 711 710 708 707 706 705 703 702 701
807 807 806 806 805 805 804 804 803 802 801 801 800 798 797 796 796 796 795 795 794 793 792 791 789 787 786 783 780 778 777 776 775 773 770 767 765 764 764 763 762 760 759 757 756 755 753 751 750 748 747 746 745 744 742 741 740 739 737 736 734 733 731 730 729 727 726 725 723 722 721 719 718 716 715 713 712 710 709 708 706 705 704 703 701 700
807 806 806 806 805 805 804 804 803 802 801 801 799 798 797 796 796 795 795 794 793 792 791 790 789 787 786 783 780 778 777 777 776 773 771 767 765 764 764 763 762 760 758 756 756 754 753 751 749 748 746 746 745 743 742 741 740 738 737 735 734 732 731 730 728 727 726 724 723 721 720 719 717 716 714 712 711 710 709 707 706 705 703 702 701 700
807 806 806 806 805 805 804 804 803 802 801 801 800 799 798 797 796 795 794 793 793 792 791 790 788 786 785 783 781 779 778 777 776 775 771 768 764 763 763 763 761 760 758 756 755 753 752 751 749 747 746 746 745 743 742 741 740 738 736 735 733 732 731 729 728 727 725 724 723 721 720 718 716 715 714 712 711 710 708 707 706 704 703 701 700 699
807 806 806 806 806 805 804 804 803 802 801 801 800 799 799 798 797 796 795 794 793 792 791 789 787 786 784 782 780 779 778 778 777 776 773 769 765 762 762 762 761 760 758 756 754 753 751 750 749 747 746 745 744 743 742 741 739 738 736 735 733 732 730 729 728 726 725 724 722 721 719 718 716 715 713 712 710 709 708 706 705 704 702 701 700 699
806 806 806 806 806 805 804 803 803 802 801 801 800 799 799 798 797 797 796 795 794 793 791 788 786 784 782 781 780 779 778 778 777 776 773 770 766 764 763 762 761 759 757 756 755 753 751 749 748 747 746 745 745 744 742 741 739 738 736 735 733 731 730 729 727 726 725 723 722 721 719 717 716 714 713 711 710 709 707 706 705 703 702 701 699 698
806 806 806 806 805 805 804 803 803 802 801 800 800 799 798 797 797 796 796 795 794 792 790 788 786 784 782 781 779 778 777 777 776 775 773 771 767 765 764 763 762 760 757 756 754 753 751 749 747 747 746 746 745 744 742 741 739 737 736 734 733 731 730 729 727 726 725 723 722 720 719 717 716 714 712 711 710 708 707 706 704 703 701 700 699 698
806 806 806 806 805 805 804 804 803 802 801 801 800 799 798 797 796 795 795 794 793 791 790 788 786 784 782 781 779 778 776 776 775 775 773 771 768 765 764 763 762 760 758 755 753 752 751 749 747 746 746 745 744 743 742 741 739 737 736 734 733 731 730 729 727 726 725 723 721 720 718 717 715 714 712 711 709 708 707 705 704 702 701 700 699 698
806 806 806 806 806 805 805 804 803 802 802 801 800 799 798 797 796 794 793 793 792 791 791 789 787 785 782 781 779 778 776 776 775 774 773 771 769 766 764 763 762 761 758 755 753 752 751 749 748 747 746 745 744 743 741 740 739 737 736 735 733 732 730 729 727 726 725 723 721 720 718 716 715 713 712 711 709 708 706 705 704 702 701 700 699 698
806 806 806 806 806 805 805 804 803 803 802 801 800 799 798 797 796 794 794 793 792 792 791 791 790 787 784 782 780 778 776 776 775 774 772 771 769 767 765 763 762 761 758 756 753 752 751 750 748 747 746 745 744 742 741 740 738 737 736 735 733 732 731 729 727 726 724 723 721 719 718 716 715 713 712 711 709 708 706 705 703 702 701 700 699 698
806 806 806 806 806 805 805 804 803 802 802 801 800 799 798 797 796 795 794 794 793 792 791 791 790 789 787 784 781 778 776 776 775 774 772 770 769 767 765 764 763 761 759 756 752 750 750 749 748 747 746 745 744 742 740 739 738 736 736 734 733 732 730 729 727 726 724 722 721 719 718 716 715 713 712 710 709 707 706 705 703 702 701 700 699 697
806 806 806 806 805 805 804 804 803 802 801 801 800 799 798 797 796 796 795 794 793 792 791 791 790 789 787 785 781 778 775 775 774 773 772 771 769 766 765 764 763 762 761 757 753 749 747 747 747 747 746 745 743 742 740 739 737 736 735 734 733 731 730 729 727 726 724 722 721 719 718 716 715 713 712 710 709 707 706 705 703 702 701 700 698 697
806 806 806 805 805 804 804 803 802 801 801 800 799 798 797 797 796 795 794 794 793 793 792 791 790 789 788 787 785 781 776 774 774 773 772 771 770 768 766 765 764 763 763 762 759 754 748 745 745 746 746 745 743 742 740 739 737 736 735 734 732 731 730 729 727 725 724 722 721 719 717 716 715 713 712 710 709 707 706 705 703 702 701 700 699 697
806 806 805 805 804 803 803 802 802 801 800 800 799 798 797 796 796 795 794 794 793 793 792 791 790 789 788 788 788 785 779 775 773 773 773 772 770 768 767 766 765 763 763 764 764 761 756 749 745 744 745 744 743 741 740 739 738 736 735 734 732 731 730 728 727 725 723 721 720 719 717 716 715 713 712 710 709 707 706 705 703 702 701 700 699 698
806 806 805 804 804 803 802 802 801 801 800 799 798 798 797 796 796 795 794 794 793 792 791 791 789 788 787 786 786 783 779 776 774 774 774 773 771 768 766 766 765 763 763 762 763 762 760 755 750 746 745 744 743 742 740 739 738 737 736 734 733 731 730 728 726 725 723 721 720 718 717 716 715 713 712 710 709 708 706 705 704 703 701 700 699 698
806 805 804 804 803 803 802 802 801 800 799 799 798 797 796 796 795 795 794 793 793 792 791 790 789 788 786 785 783 781 778 775 774 774 774 773 771 769 767 766 765 763 762 761 760 759 758 756 753 750 746 744 743 742 741 739 738 737 736 735 733 731 730 728 726 725 723 721 720 718 717 716 714 713 711 710 709 708 706 705 704 703 702 701 699 698
805 805 804 804 803 802 802 801 800 799 799 798 797 796 796 795 795 794 793 792 792 791 791 790 789 788 786 785 783 780 776 774 774 774 773 773 771 769 767 766 765 764 762 761 760 758 756 754 753 751 748 745 743 742 741 739 738 737 736 735 734 732 730 728 726 725 723 721 720 718 717 716 714 713 711 710 709 708 707 706 704 703 702 701 700 699
805 804 804 803 803 802 801 800 799 798 798 797 796 796 795 794 794 793 792 791 791 790 789 788 788 787 786 785 783 780 777 774 773 773 773 772 771 770 768 766 765 764 763 761 760 759 757 754 753 751 749 746 743 741 740 739 738 737 736 735 733 732 730 728 726 725 723 721 720 719 717 716 714 713 711 711 709 708 707 706 705 703 702 701 700 699
804 804 804 803 803 802 801 800 799 798 797 796 796 795 794 794 793 792 791 791 790 789 788 787 786 786 785 784 782 780 777 775 773 772 772 771 771 770 768 766 764 764 763 762 760 759 757 755 752 751 750 748 746 743 740 738 737 736 735 734 733 731 730 728 727 725 724 722 721 719 718 716 715 713 712 711 709 708 706 705 704 703 702 701 700 699
804 804 804 803 802 801 801 799 798 798 797 796 795 794 793 793 792 791 790 790 789 788 787 786 785 785 784 783 781 779 777 775 773 772 771 771 770 769 767 765 764 764 763 762 761 759 758 756 753 751 749 748 747 745 742 740 738 736 735 734 733 731 730 728 727 725 724 722 721 719 718 716 715 713 712 710 709 707 706 705 703 702 701 701 700 699
804 804 804 803 802 801 801 800 799 798 797 796 795 794 793 792 791 791 790 789 788 787 786 785 784 783 782 781 780 779 777 776 774 772 771 771 770 768 767 765 764 763 763 762 761 760 759 757 755 753 751 749 746 744 743 741 739 737 736 733 732 731 729 728 727 726 724 723 721 719 718 716 715 713 712 710 709 707 706 704 703 702 701 700 699 699
804 804 804 803 803 802 801 800 799 798 797 796 795 794 793 792 791 790 789 788 787 786 786 784 783 782 781 780 779 778 777 775 774 773 771 770 769 768 767 766 765 763 762 761 761 760 759 757 756 755 753 751 748 745 743 741 740 738 736 734 732 730 729 728 727 726 724 723 721 720 718 716 715 713 712 710 709 707 706 705 703 702 701 700 699 698
804 804 804 803 802 802 801 800 799 798 797 796 795 793 792 791 790 789 787 787 786 785 784 783 781 780 779 779 778 777 776 775 774 773 771 771 770 768 767 766 765 763 762 761 760 759 758 757 756 754 753 751 749 747 744 742 741 739 738 736 734 731 730 728 727 726 724 723 721 720 718 716 715 713 712 711 709 708 706 705 704 702 701 701 700 699
805 804 804 803 802 801 801 800 798 797 796 796 795 794 792 791 790 789 787 786 784 783 782 781 780 778 777 776 776 776 775 774 773 772 771 771 769 768 767 766 764 763 762 761 760 759 757 756 755 754 753 751 749 747 744 742 740 739 738 736 734 732 730 728 726 725 724 722 721 720 718 716 715 713 712 711 709 707 706 705 704 703 702 701 700 699
805 805 804 803 802 801 800 799 798 797 796 795 794 793 793 792 791 789 788 786 785 783 782 781 780 778 777 775 775 774 774 774 773 772 771 770 769 768 767 766 764 763 761 760 759 758 757 756 754 753 752 751 750 748 745 742 740 739 738 736 735 733 730 728 726 725 724 722 721 719 718 717 715 714 712 711 709 707 706 705 704 703 702 701 700 699
805 804 804 803 802 801 800 799 797 796 796 795 794 793 792 791 791 789 788 786 785 783 782 781 780 778 777 775 774 773 773 772 772 772 771 770 769 768 766 765 764 762 761 760 759 757 756 755 753 752 751 750 749 747 745 743 741 739 737 736 735 734 732 730 727 725 723 721 720 719 718 716 715 713 712 710 709 707 706 705 704 703 702 701 700 700
805 804 803 802 801 800 799 798 797 796 795 795 794 793 792 791 790 789 788 786 785 783 782 781 780 778 776 775 774 773 772 771 771 771 770 770 769 768 766 765 763 761 760 759 759 757 756 754 752 751 750 749 748 746 745 743 741 739 737 736 735 734 732 730 728 726 724 722 720 719 717 716 715 713 711 710 708 707 706 705 704 703 702 701 700 700
805 804 803 802 801 800 799 798 797 796 795 794 794 793 792 791 790 789 788 786 785 784 782 781 780 779 778 776 774 772 771 771 770 770 769 769 768 767 766 764 763 761 760 759 758 757 756 754 752 750 749 748 746 745 744 743 741 739 737 736 734 732 731 729 727 726 724 722 720 718 717 716 714 713 711 710 708 707 706 705 704 703 702 701 700 700
804 803 802 801 801 800 799 798 797 796 795 794 793 792 791 790 789 788 787 786 785 784 782 781 780 779 778 777 775 774 772 771 770 769 769 768 767 766 765 764 762 761 759 758 757 756 755 754 752 750 749 747 746 744 743 742 741 739 737 735 733 731 730 728 726 725 724 722 721 718 716 715 714 713 711 710 709 707 706 705 704 704 702 701 701 700
804 803 802 801 801 800 799 798 796 796 795 794 793 792 791 790 789 788 786 786 785 783 782 781 780 779 778 777 776 775 774 772 771 770 769 768 767 766 765 764 762 760 759 757 756 755 754 752 751 750 749 747 746 745 743 741 740 739 737 736 733 731 730 727 726 724 723 721 720 718 717 716 714 713 711 710 709 707 706 706 705 704 703 702 701 700
804 803 802 801 801 800 799 798 797 796 795 794 792 791 791 790 789 788 787 786 785 784 782 781 780 779 777 776 776 775 774 773 772 771 770 768 767 766 765 763 762 760 758 757 755 754 752 751 750 749 748 748 747 745 743 741 739 738 737 735 734 732 730 727 725 723 722 721 719 718 717 716 715 713 712 711 709 708 707 706 705 705 704 703 702 701
804 804 803 802 801 800 799 798 797 796 795 794 793 791 790 789 788 788 787 786 785 784 783 782 781 779 778 777 776 775 774 773 772 771 770 769 767 766 765 763 762 760 758 756 755 753 751 750 749 749 748 748 747 746 743 741 739 737 736 735 733 732 730 727 725 723 721 720 718 717 716 715 714 713 712 711 710 709 708 707 706 705 704 703 702 701
805 804 803 802 801 800 799 798 797 796 796 795 793 792 791 789 788 787 786 785 784 783 783 782 781 780 779 777 776 776 775 774 773 772 771 769 768 767 766 764 763 761 759 757 756 754 752 750 749 747 747 747 746 745 744 741 739 737 735 734 732 731 729 727 725 722 721 720 718 716 716 714 713 713 712 711 711 709 708 707 706 706 705 704 703 702